Regional Weather Roundup
Issued by NWS Newport/Morehead, NC

Home | Current Version | Previous Version | Text Only | Print | Product List | Glossary On
Versions: 1 2 3 4 5 6 7 8 9 10 11 12 13 14 15 16 17 18 19 20 21 22 23 24 25 26 27 28 29 30 31 32 33 34 35 36 37 38 39 40 41 42 43 44 45 46 47 48 49 50
000
ASUS42 KMHX 180922
RWRMHX
WEATHER ROUNDUP FOR EASTERN NORTH CAROLINA
NATIONAL WEATHER SERVICE NEWPORT/MOREHEAD CITY NC
400 AM EST THU DEC 18 2014

NOTE: "FAIR" INDICATES FEW OR NO CLOUDS BELOW 12,000 FEET
WITH NO SIGNIFICANT WEATHER AND/OR OBSTRUCTIONS TO VISIBILITY

NCZ015>017-031-032-045>047-102-103-181000-
NORTH COAST

CITY           SKY/WX    TMP DP  RH WIND       PRES   REMARKS
EDENTON          N/A     38  32  81 N6        30.09S
ELIZABETH CITY CLEAR     44  34  67 N7        30.09R
KITTY HAWK     MOSUNNY   44  37  75 N7        30.06R
MANTEO         PTCLDY    43  37  78 N10       30.07S

$$

NCZ045>047-081-094-103-104-181000-
CENTRAL COAST

CITY           SKY/WX    TMP DP  RH WIND       PRES   REMARKS
FRISCO         PTCLDY    48  42  80 NW8       30.06R
SWANQUARTER      N/A     43 N/A N/A NW3       30.03S

$$

NCZ095-097-098-100-101-181000-
SOUTHERN COAST

CITY           SKY/WX    TMP DP  RH WIND       PRES   REMARKS
BEAUFORT       MOCLDY    47  42  83 NW9       30.08S
CEDAR ISLAND     N/A     48 N/A N/A NW12G17   30.12S
JACKSONVILLE   MOCLDY    39  38  96 W5        30.10R
PINEY ISLAND   NOT AVBL
WILMINGTON     PTCLDY    38  36  92 CALM      30.08F


$$

NCZ011>013-027>030-043-044-078>080-089-090>093-098-181000-
COASTAL PLAIN

CITY           SKY/WX    TMP DP  RH WIND       PRES   REMARKS
AHOSKIE        CLEAR     33  30  89 CALM      30.11R
CLINTON        PTCLDY    38  38 100 N3        30.12R
ELIZABETHTOWN  CLEAR     38  37  95 CALM      30.10R
GOLDSBORO      PTCLDY    38  37  98 CALM      30.09R
GREENVILLE     PTCLDY    36  34  93 CALM      30.11S
HAVELOCK       NOT AVBL
KENANSVILLE    MOCLDY    36  36 100 CALM      30.11S
KINSTON        PTCLDY    39  34  81 N3        30.10S
NEW BERN       MOCLDY    40  36  86 NW3       30.10R
RICHLANDS      MOCLDY    34  30  86 CALM      30.11R
ROCKY MOUNT    CLEAR     39  29  67 NW6       30.11R
WASHINGTON     PTCLDY    39  33  78 N7        30.10R
WHITEVILLE     CLEAR     37  36  96 CALM      30.09R

$$

AMZ130-135-150-152-154-156-158-170-250-252-270-ANZ085-086-088-633-658-670-181000-
MARINE OBSERVATIONS

STATION/POSITION TIME  TEMP    WIND        PRES    WAVE   SWELL
                       AIR SEA DIR/SP/G            HT/PER HT/PER
                 (UTC) (F)     (DEG/KT/KT) (MB)    (FT/S) (FT/S)
CHESAPEAKE LIGHT 0900   42     350/ 21/ 23 1018.6
64 E VA BEACH    0900   47 54  340/ 19/ 25 1016.7    3/ 3   2/ 9
DUCK             0900   45 49   10/ 19/ 20 1017.1
2 E DUCK         0900      49                N/A     2/ 3
10 NE DUCK       0900      51                N/A     3/ 3
OREGON INLET     0900   44 51  330/  8/ 10 1017.8
13E OREGON INLT  0900      53                N/A     2/ 3
HATTERAS CG      0900   50 54  330/ 15/ 17 1018.1
DIAMOND BUOY     0900   55                 1017.4    3/ 4
17 S OCRACOKE    NOT AVBL
CAPE LOOKOUT     0900   51     320/ 11/ 13 1018.2
BEAUFORT LAB     0900   48 53  330/  5/ 10 1017.5
30 SE NEW RIVER  0900   57 60  290/ 10/ 12 1018.5    2/ 8   2/ 8
5 SE WRIGHTSVLE  NOT AVBL
225 S CAPE HAT   0844   69 72  280/ 12/ 16 1017.9    5/ 7   5/ 7
41 SE CHARLESTON 0900   61 73  270/  8/ 10 1018.6    2/10   2/10

$$



USA.gov is the U.S. government's official web portal to all federal, state and local government web resources and services.